TimeIST,TemperatureF,Dew PointF,Humidity,Sea Level PressureIn,VisibilityMPH,Wind Direction,Wind SpeedMPH,Gust SpeedMPH,PrecipitationIn,Events,Conditions,WindDirDegrees,DateUTC
12:00 AM,57.2,51.8,82,29.83,6.2,SE,13.8,-,N/A,,Scattered Clouds,140,2012-09-08 23:00:00
12:30 AM,57.2,53.6,88,29.83,6.2,SE,10.4,-,N/A,,Mostly Cloudy,130,2012-09-08 23:30:00
1:00 AM,56,53,84,29.83,12,ESE,6.7,,,,Partly Cloudy,120,2012-09-09 00:00:00
1:00 AM,55.4,51.8,88,29.83,6.2,ESE,6.9,-,N/A,,Mostly Cloudy,120,2012-09-09 00:00:00
1:30 AM,55.4,53.6,94,29.80,6.2,SE,6.9,-,N/A,,Mostly Cloudy,130,2012-09-09 00:30:00
2:00 AM,57.2,53.6,88,29.80,6.2,SSE,8.1,-,N/A,,Mostly Cloudy,150,2012-09-09 01:00:00
2:30 AM,57.2,53.6,88,29.77,6.2,SE,6.9,-,N/A,,Mostly Cloudy,140,2012-09-09 01:30:00
3:00 AM,57.2,53.6,88,29.74,6.2,SE,8.1,-,N/A,,Mostly Cloudy,130,2012-09-09 02:00:00
3:30 AM,57.2,55.4,94,29.74,6.2,SE,11.5,-,N/A,,Mostly Cloudy,130,2012-09-09 02:30:00
4:00 AM,57.2,55.4,94,29.71,6.2,SE,11.5,-,N/A,,Mostly Cloudy,130,2012-09-09 03:00:00
4:30 AM,59.0,55.4,88,29.71,6.2,SE,11.5,-,N/A,,Mostly Cloudy,130,2012-09-09 03:30:00
5:00 AM,59.0,55.4,88,29.68,6.2,SE,13.8,-,N/A,,Mostly Cloudy,140,2012-09-09 04:00:00
5:30 AM,59.0,55.4,88,29.68,6.2,SE,15.0,-,N/A,,Mostly Cloudy,130,2012-09-09 04:30:00
6:00 AM,59.0,55.4,88,29.65,6.2,SE,13.8,-,N/A,,Mostly Cloudy,130,2012-09-09 05:00:00
6:30 AM,59.0,57.2,94,29.65,6.2,SE,12.7,-,N/A,,Light Drizzle,130,2012-09-09 05:30:00
7:00 AM,59,57,92,29.65,7,SE,13.4,,,Rain,Light Drizzle,130,2012-09-09 06:00:00
7:00 AM,59.0,57.2,94,29.62,6.2,SE,12.7,-,N/A,,Mostly Cloudy,130,2012-09-09 06:00:00
7:30 AM,60.8,57.2,88,29.62,6.2,SE,10.4,-,N/A,,Mostly Cloudy,130,2012-09-09 06:30:00
8:00 AM,60.8,57.2,88,29.62,6.2,SE,12.7,-,N/A,,Mostly Cloudy,130,2012-09-09 07:00:00
8:30 AM,60.8,57.2,88,29.62,6.2,SE,9.2,-,N/A,,Mostly Cloudy,140,2012-09-09 07:30:00
9:00 AM,62.6,57.2,82,29.62,6.2,SSE,13.8,-,N/A,,Mostly Cloudy,150,2012-09-09 08:00:00
9:30 AM,62.6,59.0,88,29.62,6.2,SSE,15.0,-,N/A,,Mostly Cloudy,160,2012-09-09 08:30:00
10:00 AM,62.6,59.0,88,29.59,6.2,South,17.3,-,N/A,,Mostly Cloudy,170,2012-09-09 09:00:00
10:30 AM,64.4,59.0,83,29.59,6.2,South,18.4,-,N/A,,Mostly Cloudy,170,2012-09-09 09:30:00
11:00 AM,66.2,60.8,83,29.59,6.2,South,16.1,-,N/A,,Mostly Cloudy,170,2012-09-09 10:00:00
11:30 AM,66.2,60.8,83,29.59,6.2,South,17.3,-,N/A,,Mostly Cloudy,180,2012-09-09 10:30:00
12:00 PM,66.2,57.2,73,29.59,6.2,SW,17.3,-,N/A,,Mostly Cloudy,220,2012-09-09 11:00:00
12:30 PM,66.2,57.2,73,29.56,6.2,SSW,12.7,-,N/A,,Mostly Cloudy,210,2012-09-09 11:30:00
1:00 PM,65,58,73,29.59,22,SSW,13.4,,,Rain,Light Rain Showers,210,2012-09-09 12:00:00
1:00 PM,64.4,59.0,83,29.56,6.2,SSW,12.7,-,N/A,,Mostly Cloudy,210,2012-09-09 12:00:00
1:30 PM,64.4,57.2,77,29.56,6.2,SSW,13.8,-,N/A,Rain,Light Rain Showers,200,2012-09-09 12:30:00
2:00 PM,66.2,59.0,78,29.56,6.2,SSW,12.7,-,N/A,,Mostly Cloudy,210,2012-09-09 13:00:00
2:30 PM,64.4,59.0,83,29.56,6.2,SSW,15.0,-,N/A,,Mostly Cloudy,210,2012-09-09 13:30:00
3:00 PM,66.2,59.0,78,29.56,6.2,SSW,12.7,-,N/A,,Mostly Cloudy,210,2012-09-09 14:00:00
3:30 PM,64.4,60.8,88,29.56,6.2,SW,11.5,-,N/A,,Mostly Cloudy,230,2012-09-09 14:30:00
4:00 PM,64.4,60.8,88,29.56,6.2,SW,12.7,-,N/A,,Mostly Cloudy,230,2012-09-09 15:00:00
4:30 PM,66.2,60.8,83,29.56,6.2,SSW,10.4,-,N/A,,Mostly Cloudy,210,2012-09-09 15:30:00
5:00 PM,64.4,60.8,88,29.56,-9999.0,SW,11.5,-,N/A,Rain,Light Rain Showers,220,2012-09-09 16:00:00
5:30 PM,62.6,60.8,94,29.56,6.2,SW,11.5,-,N/A,,Mostly Cloudy,220,2012-09-09 16:30:00
6:00 PM,60.8,59.0,94,29.56,6.2,WSW,13.8,-,N/A,,Scattered Clouds,250,2012-09-09 17:00:00
6:30 PM,62.6,59.0,88,29.56,6.2,WSW,12.7,-,N/A,,Mostly Cloudy,240,2012-09-09 17:30:00
7:00 PM,63,59,83,29.58,16,West,13.4,,,,Partly Cloudy,260,2012-09-09 18:00:00
7:00 PM,62.6,59.0,88,29.56,6.2,West,12.7,-,N/A,,Mostly Cloudy,260,2012-09-09 18:00:00
7:30 PM,60.8,59.0,94,29.56,6.2,West,16.1,-,N/A,,Mostly Cloudy,260,2012-09-09 18:30:00
8:00 PM,60.8,59.0,94,29.59,6.2,WSW,13.8,-,N/A,,Mostly Cloudy,250,2012-09-09 19:00:00
8:30 PM,60.8,59.0,94,29.59,6.2,WSW,11.5,-,N/A,Rain,Light Rain Showers,240,2012-09-09 19:30:00
9:00 PM,60.8,59.0,94,29.59,6.2,WSW,12.7,-,N/A,,Mostly Cloudy,240,2012-09-09 20:00:00
9:30 PM,60.8,59.0,94,29.62,6.2,WSW,13.8,-,N/A,,Mostly Cloudy,240,2012-09-09 20:30:00
10:00 PM,59.0,59.0,100,29.62,2.2,WSW,12.7,-,N/A,,Light Drizzle,240,2012-09-09 21:00:00
10:30 PM,59.0,59.0,100,29.62,3.1,West,11.5,-,N/A,,Light Drizzle,260,2012-09-09 21:30:00
11:00 PM,59.0,57.2,94,29.65,6.2,WSW,11.5,-,N/A,,Mostly Cloudy,250,2012-09-09 22:00:00
11:30 PM,59.0,57.2,94,29.62,6.2,SW,9.2,-,N/A,,Mostly Cloudy,230,2012-09-09 22:30:00